Home   Weather   Port Sudan   Past weeks

Flag for Sudan Past Weather in Port Sudan, Sudan — Yesterday and Last 2 Weeks

82 °F


Feels Like: 88 °F
Forecast: 75 / 93 °F
Wind: 5 mph from Northwest

Location: Jeddah King Abdul Aziz International Airport

Current Time: Oct 23, 2016 at 2:39:26 AM

Latest Report: Oct 23, 2016 at 1:00 AM

Visibility: 10 mi

Pressure: 29.83 "Hg

Humidity: 74%

Dew Point: 73 °F

Location of Port SudanLocation

Past Weather in Port Sudan — Graph


Port Sudan Temperature Yesterday

Maximum temperature yesterday: 91 °F (at 12:00 PM)
Minimum temperature yesterday: 77 °F (at 5:00 AM)
Average temperature yesterday: 85 °F

High & Low Weather Summary for the Past Weeks

High100 °F (Oct 15, 12:00 PM)94% (Oct 21, 6:00 AM)29.86 "Hg (Oct 21, 6:00 AM)
Low77 °F (Oct 11, 6:00 AM)21% (Oct 19, 12:00 PM)29.68 "Hg (Oct 20, 3:00 PM)
Average86 °F64%29.80 "Hg
* Reported Oct 8 1:00 AM — Oct 23 1:00 AM, Port Sudan, Weather by CustomWeather, © 2016

Note: Actual official high and low records may vary slightly from our data, if they occured in-between our weather recording intervals... More about our weather records


Port Sudan Weather History for the Previous 24 Hours

Scroll right to see more
Time TempWeatherWind HumidityBarometerVisibility
1:00 AM
Sun, Oct 23
82 °FClear.5 mph74%29.83 "Hg10 mi
12:00 AM82 °FClear.5 mph70%29.86 "Hg10 mi
11:00 PM
Sat, Oct 22
84 °FClear.5 mph66%29.86 "Hg10 mi
10:00 PM84 °FClear.7 mph66%29.86 "Hg10 mi
9:00 PM86 °FClear.5 mph66%29.86 "Hg10 mi
8:00 PM86 °FClear.7 mph66%29.86 "Hg10 mi
7:00 PM86 °FClear.7 mph66%29.83 "Hg10 mi
6:00 PM88 °FClear.7 mph62%29.80 "Hg10 mi
5:00 PM88 °FSunny.9 mph62%29.80 "Hg10 mi
4:00 PM90 °FSunny.9 mph59%29.80 "Hg10 mi
3:00 PM90 °FSunny.9 mph59%29.80 "Hg10 mi
2:00 PM91 °FSunny.12 mph59%29.80 "Hg10 mi
1:00 PM91 °FSunny.12 mph59%29.80 "Hg10 mi
12:00 PM91 °FSunny.9 mph59%29.83 "Hg10 mi
11:00 AM90 °FSunny.8 mph55%29.86 "Hg10 mi
10:00 AM90 °FSunny.7 mph52%29.86 "Hg10 mi
9:00 AM86 °FSunny.5 mph62%29.86 "Hg10 mi
8:00 AM81 °FSunny.5 mph79%29.83 "Hg10 mi
7:00 AM77 °FSunny.No wind83%29.83 "Hg10 mi
6:00 AM77 °FClear.No wind83%29.83 "Hg10 mi
5:00 AM77 °FClear.3 mph89%29.83 "Hg10 mi
4:00 AM79 °FClear.5 mph84%29.80 "Hg10 mi
3:00 AM79 °FClear.5 mph84%29.80 "Hg10 mi
2:00 AM81 °FClear.No wind79%29.80 "Hg10 mi
Weather by CustomWeather, © 2016

See weather overviewHow to use our weather pages